Regional Weather Roundup
Issued by NWS

Home | Current Version | Previous Version | Graphics & Text | Print | Product List | Glossary On
Versions: 1 2 3 4 5 6 7 8 9 10 11 12 13 14 15 16 17 18 19 20 21 22 23 24 25 26 27 28 29 30 31 32 33 34 35 36 37 38 39 40 41 42 43 44 45 46 47 48 49 50
000
ASUS43 KIND 281709
RWRIN

WEATHER ROUNDUP FOR INDIANA
NATIONAL WEATHER SERVICE INDIANAPOLIS IN
100 PM EDT THU MAY 28 2015

NOTE: "FAIR" INDICATES FEW OR NO CLOUDS BELOW 12,000 FEET WITH NO
SIGNIFICANT WEATHER AND/OR OBSTRUCTIONS TO VISIBILITY.

* - STATION DOES NOT REPORT WEATHER SUCH AS PRECIPITATION OR FOG.

+ - STATION NOT QUALITY CONTROLLED BY THE NATIONAL WEATHER SERVICE.
    USE DATA WITH CAUTION...ESPECIALLY DEWPOINT AND RELATIVE
    HUMIDITY OBSERVATIONS.

INZ001>003-010>013-019-020-281800-
NORTHWEST INDIANA

CITY           SKY/WX    TMP DP  RH WIND       PRES   REMARKS
GARY /AIRPORT/ MOSUNNY   81  57  44 E12       30.21F
KNOX *+        SUNNY     77  52  41 E12       30.21F
LA PORTE +     SUNNY     80  53  39 E14       30.23F
MICHIGAN CITY+ SUNNY     77  55  47 SE5       30.22F
MONTICELLO +   SUNNY     74  60  60 E6        30.21F
RENSSELAER +   SUNNY     79  50  36 E9        30.21F
VALPARAISO     SUNNY     79  56  45 E12G21    30.22F

$$

LMZ046-743>745-281800-
SOUTHERN LAKE MICHIGAN

STATION/POSITION TIME  TEMP    WIND        PRES    WAVE
                       AIR SEA DIR/SP/G            HT
                 (UTC) (F)     (DEG/KT/KT) (MB)    (FT)
BURNS HARBOR     1700   67      60/ 11/ 12 1023.4S
MICHIGAN CITY    1700   67      20/  5/  7   N/A
5NW MICH CITY    1700   60 55   50/  6/  8   N/A     0

$$

INZ004-005-014>016-021>024-281800-
NORTH CENTRAL INDIANA

CITY           SKY/WX    TMP DP  RH WIND       PRES   REMARKS
ELKHART        SUNNY     77  52  41 SE8       30.25F
GOSHEN         SUNNY     78  55  44 SE10      30.24F
LOGANSPORT +   SUNNY     75  55  50 E9        30.23F
PERU/GRISSOM   SUNNY     76  60  58 SE8       30.22F
ROCHESTER +    SUNNY     79  61  53 E10       30.24F
SOUTH BEND     SUNNY     78  52  40 E10       30.24F
WARSAW +       SUNNY     73  59  60 E8        30.25S

$$

INZ006>009-017-018-025>027-281800-
NORTHEAST INDIANA

CITY           SKY/WX    TMP DP  RH WIND       PRES   REMARKS
ANGOLA *+      SUNNY     75  57  53 S8        30.26S
AUBURN +       SUNNY     75  59  57 SE6G20    30.27R
FORT WAYNE     MOSUNNY   75  60  59 SE12      30.25F
HUNTINGTON +   MOSUNNY   74  59  58 E7        30.24S

$$

INZ028-029-035-036-043>045-051>053-281800-
WEST CENTRAL INDIANA

CITY           SKY/WX    TMP DP  RH WIND       PRES   REMARKS
CRAWFORDSVL +  SUNNY     76  44  31 SE9       30.20F
GREENCASTLE +  SUNNY     79  50  36 CALM      30.20F
LAFAYETTE      SUNNY     75  59  57 E13       30.20F
TERRE HAUTE    SUNNY     80  58  46 VRB5      30.18F

$$

INZ030>032-037>040-046>048-054>057-064-065-281800-
CENTRAL INDIANA

CITY           SKY/WX    TMP DP  RH WIND       PRES   REMARKS
ANDERSON       MOSUNNY   75  54  46 SE6       30.24S
CP ATTERBURY + MOSUNNY   77  64  65 S3        30.21S
COLUMBUS       PTSUNNY   77  63  61 CALM      30.20F
FRANKFORT +    SUNNY     79  55  43 NE10      30.22F
GREENWOOD *+   SUNNY     79  57  47 CALM      30.21F
INDIANAPOLIS   MOSUNNY   78  58  49 VRB6      30.19F
-EAGLE CREEK   SUNNY     77  56  48 VRB6      30.20F
KOKOMO *+      SUNNY     75  57  53 E12       30.22S
MARION +       SUNNY     76  55  48 E5        30.23F
MT COMFORT *+  SUNNY     79  46  31 SE6       30.22S
SHELBYVILLE    SUNNY     80  63  55 MISG      30.20F
ZIONSVILLE +   SUNNY     76  57  51 E6        30.23S

$$

INZ033-034-041-042-049-050-058-059-281800-
EAST CENTRAL INDIANA

CITY           SKY/WX    TMP DP  RH WIND       PRES   REMARKS
MUNCIE         MOSUNNY   78  58  49 E8        30.23F

$$

INZ060-061-067>069-081>083-085>088-281800-
SOUTHWEST INDIANA

CITY           SKY/WX    TMP DP  RH WIND       PRES   REMARKS
EVANSVILLE     MOSUNNY   80  67  64 VRB7      30.17F
HUNTINGBURG *+ PTSUNNY   77  68  73 SE9       30.19S
WASHINGTON +   SUNNY     79  65  63 SE7       30.17F

$$

INZ062-063-066-070>080-084-089>092-281800-
SOUTH CENTRAL AND SOUTHEAST INDIANA

CITY           SKY/WX    TMP DP  RH WIND       PRES   REMARKS
BLOOMINGTON    SUNNY     79  63  57 SE8       30.19F
MADISON *+     CLOUDY    73  63  68 SE6       30.24F
NORTH VERNON + MOSUNNY   79  66  65 CALM      30.22S
SEYMOUR +      MOSUNNY   77  64  65 S3        30.21F

$$



USA.gov is the U.S. government's official web portal to all federal, state and local government web resources and services.